[Date Prev][Date Next][Thread Prev][Thread Next] - [Date Index][Thread Index][Author Index]

2 Line ISS keps 6-5



ISS 
1 25544U 98067A   01156.46900476  .00028760  00000-0  33585-3 0   440
2 25544  51.5695 147.8427 0017512 124.5647  13.7010 15.61192607145247

 
----
Via the sarex mailing list at AMSAT.ORG courtesy of AMSAT-NA.
To unsubscribe, send "unsubscribe sarex" to Majordomo@amsat.org



AMSAT Top AMSAT Home